Regional Weather Roundup
Issued by NWS

Home | Current Version | Previous Version | Text Only | Print | Product List | Glossary Off
Versions: 1 2 3 4 5 6 7 8 9 10 11 12 13 14 15 16 17 18 19 20 21 22 23 24 25 26 27 28 29 30 31 32 33 34 35 36 37 38 39 40 41 42 43 44 45 46 47 48 49 50

000
ASUS43 KIND 232109
RWRIN

WEATHER ROUNDUP FOR INDIANA
NATIONAL WEATHER SERVICE INDIANAPOLIS IN
500 PM EDT SAT MAY 23 2015

NOTE: "FAIR" INDICATES FEW OR NO CLOUDS BELOW 12,000 FEET WITH NO
SIGNIFICANT WEATHER AND/OR OBSTRUCTIONS TO VISIBILITY.

* - STATION DOES NOT REPORT WEATHER SUCH AS PRECIPITATION OR FOG.

+ - STATION NOT QUALITY CONTROLLED BY THE NATIONAL WEATHER SERVICE.
    USE DATA WITH CAUTION...ESPECIALLY DEWPOINT AND RELATIVE
    HUMIDITY OBSERVATIONS.

INZ001>003-010>013-019-020-232200-
NORTHWEST INDIANA

CITY           SKY/WX    TMP DP  RH WIND       PRES   REMARKS
GARY /AIRPORT/ MOSUNNY   79  45  29 E13       30.25F
KNOX *+        PTSUNNY   79  43  27 SW9       30.25F
LA PORTE +     MOSUNNY   81  42  24 SW6       30.26F
MICHIGAN CITY+ MOSUNNY   77  41  27 N8        30.25F
MONTICELLO +   SUNNY     78  49  34 S8        30.26F
RENSSELAER +   MOSUNNY   81  43  26 S10       30.26F
VALPARAISO     MOSUNNY   81  40  23 SW8G18    30.25F

$$

LMZ046-743>745-232200-
SOUTHERN LAKE MICHIGAN

STATION/POSITION TIME  TEMP    WIND        PRES    WAVE
                       AIR SEA DIR/SP/G            HT
                 (UTC) (F)     (DEG/KT/KT) (MB)    (FT)
BURNS HARBOR     2100   62      80/ 11/ 12 1024.7F
MICHIGAN CITY    2100   61      40/ 12/ 12   N/A
5NW MICH CITY    2100   59 55   80/  6/  6   N/A     1

$$

INZ004-005-014>016-021>024-232200-
NORTH CENTRAL INDIANA

CITY           SKY/WX    TMP DP  RH WIND       PRES   REMARKS
ELKHART        SUNNY     79  39  24 W7        30.28F
GOSHEN         MOSUNNY   76  50  40 W7        30.27F
LOGANSPORT +   SUNNY     79  36  21 SW9       30.28F
PERU/GRISSOM   MOSUNNY   80  45  29 SW12      30.26F
ROCHESTER +    SUNNY     81  43  26 SW9       30.28F
SOUTH BEND     PTSUNNY   79  39  23 CALM      30.27F
WARSAW +       SUNNY     79  45  29 W7        30.28F

$$

INZ006>009-017-018-025>027-232200-
NORTHEAST INDIANA

CITY           SKY/WX    TMP DP  RH WIND       PRES   REMARKS
ANGOLA *+      SUNNY     79  72  78 W7        30.29F
AUBURN +       MOSUNNY   79  41  25 S5        30.30F
FORT WAYNE     MOSUNNY   78  46  32 SW8       30.30F
HUNTINGTON +   CLOUDY    75  46  35 SW5       30.28F

$$

INZ028-029-035-036-043>045-051>053-232200-
WEST CENTRAL INDIANA

CITY           SKY/WX    TMP DP  RH WIND       PRES   REMARKS
CRAWFORDSVL +  SUNNY     77  29  17 S9        30.28F
GREENCASTLE +  MOSUNNY   75  41  29 S10       30.29F
LAFAYETTE      MOSUNNY   78  46  32 S8        30.26F
TERRE HAUTE    SUNNY     78  49  35 S10       30.28F

$$

INZ030>032-037>040-046>048-054>057-064-065-232200-
CENTRAL INDIANA

CITY           SKY/WX    TMP DP  RH WIND       PRES   REMARKS
CP ATTERBURY + SUNNY     77  46  33 SE9       30.30F
COLUMBUS       MOSUNNY   77  34  20 S12       30.30F
FRANKFORT +    SUNNY     81  44  27 E8        30.29F
GREENWOOD *+   SUNNY     81  30  16 S9G16     30.30F
INDIANAPOLIS   MOSUNNY   79  44  28 S10       30.28F
-EAGLE CREEK   SUNNY     78  44  29 VRB7      30.28F
KOKOMO *+      MOSUNNY   81  45  28 SW8       30.28F
MARION +       PTSUNNY   78  41  26 SW12      30.30F
MT COMFORT *+  SUNNY     81  10   7 SW8       30.30F
SHELBYVILLE    SUNNY     80  45  28 S7        30.29F
ZIONSVILLE +   MOSUNNY   80  37  21 S10       30.30F

$$

INZ033-034-041-042-049-050-058-059-232200-
EAST CENTRAL INDIANA

CITY           SKY/WX    TMP DP  RH WIND       PRES   REMARKS
MUNCIE         MOSUNNY   77  42  28 VRB5      30.30F

$$

INZ060-061-067>069-081>083-085>088-232200-
SOUTHWEST INDIANA

CITY           SKY/WX    TMP DP  RH WIND       PRES   REMARKS
EVANSVILLE     SUNNY     78  46  32 SE7       30.27F
HUNTINGBURG *+ SUNNY     79  48  34 E8        30.28F
WASHINGTON +   SUNNY     78  39  24 S8        30.27F

$$

INZ062-063-066-070>080-084-089>092-232200-
SOUTH CENTRAL AND SOUTHEAST INDIANA

CITY           SKY/WX    TMP DP  RH WIND       PRES   REMARKS
BLOOMINGTON    SUNNY     76  46  34 VRB6      30.29F
MADISON *+     SUNNY     79  36  21 SE3       30.33F
NORTH VERNON + SUNNY     79  46  31 CALM      30.31F
SEYMOUR +      SUNNY     81  48  32 SE10      30.30F

$$




USA.gov is the U.S. government's official web portal to all federal, state and local government web resources and services.